Content
SEND FEEDBACK

Daily
Averages
Monthly
Summary
United States of America

ASHEVILLE, NORTH CAROLINA


Home > North America > United States > North Carolina
Elevation: 2240 feet     Latitude: 35 36N     Longitude: 082 32W

WEATHER
 
SELECT A DAY
Number of Records: 230,425;   Date Range: 1/1/95 - 11/26/14
 
SHARE

PRINT THIS DATA

[ ← Previous Day ]
WEATHER ALMANAC - APRIL 4, 2013
[ Next Day → ]
[ °C ]   °F
Weather ElementAverageHighLow
Temperature38 °F46.9 °F (1:54 am)34 °F (12:54 pm)
Dewpoint32.2 °F36 °F (6:54 pm)21 °F (3:54 am)
Humidity82.2 %96 % (6:54 pm)36 % (3:54 am)
Barometer30.10 in30.22 in (1:54 am)29.96 in (11:07 pm)
Wind Speed2.7 mph8.1 mph (4:54 am)
Weather ElementAverage
Visibility6.8 mi
Wind DirectionESE (100.6 °)

Weather ElementTotal
Precipitation0.81 in
Heating Degree Days24.6 (Base 65)
Averaged from 33 records on April 4, 2013
WEATHER CONDITIONS BREAKOUT
WIND DIRECTION BREAKOUT
WEATHER BY HOUR - APRIL 4, 2013
[ °C ]   °F
Local TimeTemperatureDewpointHumidityBarometerVisibilityWind DirectionWind SpeedGust SpeedPrecipitationEventsConditions
1:54 AM46.9 °F23.0 °F39 %30.22 in10.0 miSouth (170°)5.8 mphClear
2:54 AM46.9 °F24.1 °F41 %30.21 in10.0 miSouth (180°)4.6 mphMostly Cloudy
3:54 AM46.9 °F21.0 °F36 %30.19 in10.0 miVariable3.5 mphOvercast
4:54 AM45.0 °F21.9 °F40 %30.19 in10.0 miESE (110°)8.1 mph0.01 inRainLight Rain
5:54 AM42.1 °F30.0 °F62 %30.21 in10.0 miCalm0.01 inRainLight Rain
6:54 AM37.9 °F33.1 °F83 %30.22 in8.0 miWSW (250°)3.5 mph0.05 inRainLight Rain
7:54 AM37.9 °F34.0 °F86 %30.22 in7.0 miSouth (180°)3.5 mph0.02 inRainLight Rain
8:54 AM37.9 °F30.9 °F76 %30.22 in10.0 miCalm0.00 inOvercast
9:54 AM37.9 °F28.9 °F70 %30.21 in10.0 miCalm0.01 inRainLight Rain
10:54 AM37.0 °F28.0 °F70 %30.20 in10.0 miNorth (360°)3.5 mph0.02 inOvercast
11:54 AM36.0 °F30.0 °F79 %30.21 in10.0 miNorth (360°)4.6 mph0.04 inRainLight Rain
12:54 PM34.0 °F30.9 °F89 %30.18 in5.0 miNorth (10°)3.5 mph0.10 inRainRain
1:54 PM36.0 °F32.0 °F86 %30.15 in7.0 miEast (100°)5.8 mph0.06 inRainLight Rain
2:37 PM35.6 °F33.8 °F93 %30.12 in4.0 miCalm0.06 inRainRain
2:41 PM35.6 °F33.8 °F93 %30.12 in4.0 miNNW (330°)3.5 mph0.07 inRainRain
2:49 PM35.6 °F32.0 °F87 %30.11 in4.0 miNorth (10°)4.6 mph0.08 inRainRain
2:54 PM35.6 °F32.0 °F87 %30.11 in4.0 miVariable4.6 mphRainLight Rain
3:54 PM35.1 °F33.1 °F92 %30.09 in4.0 miCalm0.09 inRainLight Rain
4:23 PM35.6 °F33.8 °F93 %30.06 in4.0 miCalm0.02 inRainLight Rain
4:54 PM36.0 °F33.1 °F89 %30.05 in4.0 miVariable3.5 mph0.04 inRainLight Rain
5:29 PM37.4 °F33.8 °F87 %30.04 in1.0 miCalm0.00 inRainLight Rain
5:54 PM37.0 °F35.1 °F93 %30.04 in1.0 miCalm0.04 inRainRain
5:57 PM37.4 °F35.6 °F93 %30.03 in2.5 miCalm0.01 inRainLight Rain
6:04 PM37.4 °F35.6 °F93 %30.03 in3.0 miCalm0.02 inRainLight Rain
6:54 PM37.0 °F36.0 °F96 %30.03 in7.0 miWSW (240°)3.5 mph0.04 inOvercast
7:54 PM37.0 °F36.0 °F96 %30.02 in3.0 miCalm0.00 inOvercast
8:44 PM37.4 °F35.6 °F93 %29.99 in6.0 miSSW (200°)5.8 mph0.01 inOvercast
8:54 PM37.0 °F36.0 °F96 %30.00 in8.0 miSouth (170°)5.8 mph0.01 inOvercast
9:11 PM37.4 °F35.6 °F93 %29.99 in9.0 miSSW (210°)3.5 mphOvercast
9:54 PM37.0 °F36.0 °F96 %29.99 in10.0 miSSW (200°)3.5 mphOvercast
10:54 PM37.0 °F36.0 °F96 %29.99 in10.0 miWSW (240°)3.5 mphOvercast
11:07 PM37.4 °F35.6 °F93 %29.96 in10.0 miCalmOvercast
11:54 PM37.0 °F36.0 °F96 %29.97 in9.0 miCalmOvercast
Hourly data recorded from KAVL, located miles away from Asheville, North Carolina







STORIES FROM OUR PARTNERS